Location: Byhalia Creek
(34.8270°N, 89.8040°W)
Time: 16:35:28
(UTC+00:00)

H-2A R/B - Pass Details

Date: 22 April 2026
Orbit: 549 x 612 km, 98.5° (Epoch: 9 May)

Event Time Altitude Azimuth Distance (km) Brightness Sun altitude
Rises 09:09:08 0° 26° (NNE) 2,747 6.4 -24.7°
Reaches altitude 10° 09:11:31 10° 38° (NE) 1,840 5.5 -24.3°
Maximum altitude 09:14:57 28° 98° (E) 1,056 3.6 -23.7°
Enters shadow 09:17:03 18° 144° (SE) 1,399 3.8 -23.3°
